Regional Weather Roundup
Issued by NWS

Home | Current Version | Previous Version | Graphics & Text | Print | Product List | Glossary On
Versions: 1 2 3 4 5 6 7 8 9 10 11 12 13 14 15 16 17 18 19 20 21 22 23 24 25 26 27 28 29 30 31 32 33 34 35 36 37 38 39 40 41 42 43 44 45 46 47 48 49 50
000
ASUS43 KBIS 151902
RWRND

NORTH DAKOTA REGIONAL WEATHER ROUNDUP
NATIONAL WEATHER SERVICE BISMARCK ND
200 PM CDT TUE AUG 15 2017

NOTE: "FAIR" INDICATES FEW OR NO CLOUDS BELOW 12,000 FEET WITH NO
SIGNIFICANT WEATHER AND/OR OBSTRUCTIONS TO VISIBILITY.


NDZ001>003-009>011-017-152000-
NORTHWEST NORTH DAKOTA

CITY           SKY/WX    TMP DP  RH WIND       PRES   REMARKS
WILLISTON      CLOUDY    72  61  68 SE7       29.86R
MINOT          CLOUDY    66  63  90 SE8       29.86S
MINOT AFB      CLOUDY    65  62  93 SE8       29.85S
$$

NDZ018>021-031>035-040>046-152000-
SOUTHWEST NORTH DAKOTA

CITY           SKY/WX    TMP DP  RH WIND       PRES   REMARKS
BISMARCK       CLOUDY    70  63  78 SE9       29.84F
DICKINSON      CLOUDY    65  62  90 CALM      29.84F
GARRISON         N/A     63  63 100 SE5       29.87S
HETTINGER ARPT CLOUDY    65  61  87 CALM      29.86F
$$

NDZ004>008-012>016-024-026-027-054-152000-
NORTHEAST NORTH DAKOTA

CITY           SKY/WX    TMP DP  RH WIND       PRES   REMARKS
GRAND FORKS    CLOUDY    75  60  59 S12       29.90F
GRND FRKS AFB  PTSUNNY   72  60  65 S13       29.91F
DEVILS LAKE    CLOUDY    70  61  73 SE9       29.91F
$$

NDZ022-023-025-028>030-036>039-047>053-152000-
SOUTHEAST NORTH DAKOTA

CITY           SKY/WX    TMP DP  RH WIND       PRES   REMARKS
FARGO          PTSUNNY   73  59  61 SE13G18   29.91S
JAMESTOWN      CLOUDY    68  61  78 SE10      29.89
$$





USA.gov is the U.S. government's official web portal to all federal, state and local government web resources and services.